Location: Asheville, NC
(35.6000°N, 82.5500°W)
Time: 07:08:33
(UTC-04:00)

STARS - Pass Details

Date: 09 January 2018
Orbit: 625 x 641 km, 98.3° (Epoch: 18 July)

Event Time Altitude Azimuth Distance (km) Brightness Sun altitude
Rises 19:12:49 0° 1° (N) 2,926 ? -19.5°
Reaches altitude 10° 19:15:11 10° 351° (N) 2,017 ? -20.0°
Maximum altitude 19:19:04 32° 289° (WNW) 1,091 ? -20.7°
Drops below altitude 10° 19:22:58 10° 226° (SW) 2,015 ? -21.5°
Sets 19:25:20 0° 217° (SW) 2,921 ? -22.0°
